GAOFEN-12 04

Last updated on Mon Sep 21 2026 00:02:46 GMT+0000 (Coordinated Universal Time)

1 57654U 23123A 26263.61080295 .00000553 00000+0 80125-4 0 9990 2 57654 97.9066 180.1708 0002912 139.4216 220.7213 14.79872328166743
UTC large
Height (km)
Speed (km/s)
/
Latitude / Longitude
Inclination (degrees)
Orbital Period (minutes)
Azimuth
Elevation
Range (km)
Doppler Factor

Next 0 passes for location: London (51.5072 / 0.1276)

No passes found over London.
GAOFEN-12 04